User: anonymous   Login
Location: Unspecified
(0.0000°N, 0.0000°E)
Time: 14:07:39
(UTC+00:00)
Language:

NIGERIASAT 2 - Orbit

View from above orbital plane
View from above orbital plane
View from above satellite
View from above satellite

Ground track
Ground track

The orbit data is extracted from the following two-line orbital elements,

1 37789U 11044B   18115.02155826  .00000016  00000-0  12263-4 0  9994
2 37789  98.0019 182.3499 0011855 128.8261 231.4004 14.62063001356581
Epoch (UTC): 25 April 2018 00:31:02
Eccentricity: 0.0011855
inclination: 98.0019°
perigee height: 678 km
apogee height: 695 km
right ascension of ascending node: 182.3499°
argument of perigee: 128.8261°
revolutions per day: 14.62063001
mean anomaly at epoch: 231.4004°
orbit number at epoch: 35658

The dashed part of the orbit path shows where the satellite is in the earth's shadow,  

DLR